Regional Weather Roundup
Issued by NWS

Home | Current Version | Previous Version | Graphics & Text | Print | Product List | Glossary On
Versions: 1 2 3 4 5 6 7 8 9 10 11 12 13 14 15 16 17 18 19 20 21 22 23 24 25 26 27 28 29 30 31 32 33 34 35 36 37 38 39 40 41 42 43 44 45 46 47 48 49 50
000
ASUS43 KOAX 251610
RWRNE

WEATHER ROUNDUP FOR NEBRASKA
NATIONAL WEATHER SERVICE OMAHA NE
1100 AM CDT SUN JUN 25 2017

NOTES: SATELLITE DATA IS BEING USED TO AUGMENT CLOUD COVER ABOVE
       12000 FEET.
       "FAIR" INDICATES FEW OR NO CLOUDS BELOW 12,000 FEET WITH NO
       SIGNIFICANT WEATHER AND/OR OBSTRUCTIONS TO VISIBILITY.

  * THESE STATIONS DO NOT REPORT WEATHER SUCH AS RAIN...SNOW OR FOG.

NEZ001>004-019>022-054>056-251700-
NEBRASKA PANHANDLE

CITY           SKY/WX    TMP DP  RH WIND       PRES   REMARKS
SCOTTSBLUFF    CLOUDY    66  38  35 SE10      30.35F
ALLIANCE       CLOUDY    65  42  43 S15       30.36F
CHADRON        SUNNY     68  38  33 VRB3      30.33F
GORDON         FAIR      66  37  34 S9        30.34F
KIMBALL        CLOUDY    62  38  41 SE16G23   30.39F
SIDNEY         CLOUDY    63  35  35 SE16G23   30.38F
$$

NEZ057>060-069>072-079>082-251700-
SOUTHWEST NEBRASKA

CITY           SKY/WX    TMP DP  RH WIND       PRES   REMARKS
NORTH PLATTE   MOSUNNY   65  47  52 E8        30.36F
IMPERIAL       CLOUDY    60  42  51 E14       30.37F
LEXINGTON      CLOUDY    60  49  65 CALM      30.38S
MCCOOK         CLOUDY    58  45  62 NE7       30.38F
OGALLALA       PTSUNNY   64  45  48 E10       30.37S
$$

NEZ005>010-023>029-035>040-094-251700-
NORTH CENTRAL NEBRASKA

CITY           SKY/WX    TMP DP  RH WIND       PRES   REMARKS
VALENTINE      SUNNY     68  32  26 VRB3      30.34F
AINSWORTH      SUNNY     66  39  36 NW3       30.36S
BROKEN BOW     SUNNY     66  38  35 CALM      30.37S
O`NEILL        SUNNY     67  37  33 N14       30.34F
ORD            SUNNY     68  38  33 MISG      30.35F
THEDFORD       MOSUNNY   69  36  30 NE5       30.37F
$$

NEZ041-046>049-061>064-073>077-083>087-251700-
SOUTH CENTRAL NEBRASKA

CITY           SKY/WX    TMP DP  RH WIND       PRES   REMARKS
GRAND ISLAND   CLOUDY    65  42  43 CALM      30.37F
AURORA         CLOUDY    65  41  41 CALM      30.37S
HASTINGS       MOSUNNY   62  46  55 CALM      30.38F
HEBRON         CLOUDY    64  47  55 CALM      30.35F
HOLDREGE       CLOUDY    55  48  75 E5        30.36F
KEARNEY *      CLOUDY    59  43  55 CALM      30.39S
YORK           CLOUDY    66  43  42 CALM      30.36S
$$

NEZ011>018-030>034-042>045-251700-
NORTHEAST NEBRASKA

CITY           SKY/WX    TMP DP  RH WIND       PRES   REMARKS
NORFOLK        SUNNY     66  41  40 NW12      30.32F
ALBION         SUNNY     68  37  32 NW12      30.34F
BLAIR          SUNNY     65  43  44 NW16G22   30.32S
FREMONT        SUNNY     66  41  40 NW9       30.34S
TEKAMAH        MOSUNNY   69  41  36 NW16G23   30.31F
WAYNE          SUNNY     66  41  40 NW16G24   30.32F
$$

NEZ050>053-065>068-078-088>093-251700-
SOUTHEAST NEBRASKA

CITY           SKY/WX    TMP DP  RH WIND       PRES   REMARKS
LINCOLN        MOSUNNY   72  42  34 NW14      30.34F
OMAHA EPPLEY   MOSUNNY   69  43  38 NW16G24   30.32F
BEATRICE       CLOUDY    68  44  42 N8        30.34S
FALLS CITY     CLOUDY    68  44  42 N12       30.32S
NEBRASKA CITY  MOSUNNY   68  46  45 N10       30.32F
PLATTSMOUTH    SUNNY     67  42  40 NW12G18   30.33S
$$

NEZ044-045-051>053-067-251700-
OMAHA AREA

CITY           SKY/WX    TMP DP  RH WIND       PRES   REMARKS
OMAHA EPPLEY   MOSUNNY   69  43  38 NW16G24   30.32F
BLAIR          SUNNY     65  43  44 NW16G22   30.32S
FREMONT        SUNNY     66  41  40 NW9       30.34S
MILLARD        SUNNY     68  45  43 NW8G16    30.32F
OFFUTT AFB     SUNNY     68  43  41 NW13G23   30.31F
PLATTSMOUTH    SUNNY     67  42  40 NW12G18   30.33S
WAHOO          FAIR      69  39  33 NW13G18   30.34R
$$




USA.gov is the U.S. government's official web portal to all federal, state and local government web resources and services.